Change the Weather History Date:

Wednesday, November 7, 2012

  Actual Average Record
Temperature  
Mean Temperature 45 °F 55 °F  
Max Temperature 54 °F 67 °F 80 °F (2008)
Min Temperature 35 °F 43 °F 22 °F (1967)
Degree Days  
Heating Degree Days 20 11  
Month to date heating degree days 129 69  
Since 1 July heating degree days 306 258  
Cooling Degree Days 0 0  
Month to date cooling degree days 0 1  
Year to date cooling degree days 1871 1721  
Moisture  
Dew Point 31 °F    
Average Humidity 65    
Maximum Humidity 85    
Minimum Humidity 44    
Precipitation  
Precipitation T in 0.11 in 2.40 in (2006)
Month to date precipitation T 0.74  
Year to date precipitation 37.29 37.89  
Sea Level Pressure  
Sea Level Pressure 29.90 in    
Wind  
Wind Speed 4 mph (North)    
Max Wind Speed 13 mph    
Max Gust Speed 17 mph    
Visibility 10 miles    
Events Rain    
T = Trace of Precipitation, MM = Missing Value Source: NWS Daily Summary

Daily Weather History Graph

Daily Weather History Graph

Search for Another Location

Airport or City:

Trip Planner

Search our weather history database for the weather conditions in past years. The results will help you decide how hot, cold, wet, or windy it might be!

Date:

Astronomy

Nov. 07, 2012 Rise Set
Actual Time 6:43 AM EST 5:13 PM EST
Civil Twilight 6:17 AM EST 5:40 PM EST
Nautical Twilight 5:46 AM EST 6:10 PM EST
Astronomical Twilight 5:16 AM EST 6:40 PM EST
Moon No Moon Rise 1:09 PM EST (11/7)
Length of Visible Light 11h 23m
Length of Day
10h 29m
Last Quarter, 43% of the Moon is Illuminated
Nov 7
Last Quarter
Nov 13
New
Nov 20
First Quarter
Nov 28
Full
Dec 6
Last Quarter

Hourly Weather History & Observations

Time (EST) Temp. Windchill Dew Point Humidity Pressure Visibility Wind Dir Wind Speed Gust Speed Precip Events Conditions
12:51 AM 41.0 °F 37.1 °F 28.9 °F 62% 29.92 in 10.0 mi North 5.8 mph - N/A   Overcast
1:51 AM 39.9 °F 37.8 °F 28.9 °F 65% 29.91 in 10.0 mi North 3.5 mph - N/A   Mostly Cloudy
2:51 AM 39.9 °F 36.7 °F 28.9 °F 65% 29.90 in 10.0 mi North 4.6 mph - N/A   Overcast
3:51 AM 39.9 °F 37.8 °F 30.0 °F 68% 29.88 in 10.0 mi North 3.5 mph - N/A   Overcast
4:51 AM 39.9 °F 36.7 °F 30.0 °F 68% 29.89 in 10.0 mi NNW 4.6 mph - N/A   Overcast
5:51 AM 39.9 °F - 30.9 °F 70% 29.90 in 10.0 mi Calm Calm - N/A   Overcast
6:51 AM 39.9 °F 36.7 °F 30.9 °F 70% 29.89 in 10.0 mi NNE 4.6 mph - N/A   Overcast
7:51 AM 39.9 °F - 30.9 °F 70% 29.91 in 10.0 mi Calm Calm - N/A   Overcast
8:51 AM 41.0 °F 37.1 °F 30.9 °F 67% 29.91 in 10.0 mi North 5.8 mph - N/A   Mostly Cloudy
9:51 AM 42.1 °F 37.7 °F 32.0 °F 67% 29.92 in 10.0 mi Variable 6.9 mph - N/A   Mostly Cloudy
10:51 AM 44.1 °F 41.5 °F 32.0 °F 63% 29.91 in 10.0 mi North 4.6 mph - N/A   Mostly Cloudy
11:51 AM 48.0 °F - 32.0 °F 54% 29.88 in 10.0 mi NE 6.9 mph - N/A   Scattered Clouds
12:51 PM 50.0 °F - 32.0 °F 50% 29.85 in 10.0 mi ENE 6.9 mph - N/A   Scattered Clouds
1:51 PM 51.1 °F - 30.9 °F 46% 29.84 in 10.0 mi Variable 3.5 mph - N/A   Scattered Clouds
2:51 PM 53.1 °F - 32.0 °F 45% 29.84 in 10.0 mi Variable 3.5 mph - N/A   Scattered Clouds
3:51 PM 51.1 °F - 30.0 °F 44% 29.85 in 10.0 mi NNW 6.9 mph - N/A   Mostly Cloudy
4:51 PM 48.9 °F - 28.9 °F 46% 29.88 in 10.0 mi NNE 12.7 mph 17.3 mph N/A   Mostly Cloudy
5:51 PM 46.4 °F 42.9 °F 28.4 °F 50% 29.89 in 10.0 mi NNE 6.9 mph - N/A   Mostly Cloudy
6:51 PM 45.0 °F 42.6 °F 33.1 °F 63% 29.91 in 10.0 mi NNE 4.6 mph - 0.00 in   Light Drizzle
7:51 PM 44.1 °F - 33.1 °F 65% 29.92 in 10.0 mi Calm Calm - 0.00 in   Overcast
8:51 PM 42.1 °F - 33.1 °F 70% 29.93 in 10.0 mi Calm Calm - N/A   Overcast
9:51 PM 41.0 °F - 33.1 °F 73% 29.94 in 10.0 mi Calm Calm - N/A   Mostly Cloudy
10:51 PM 37.0 °F - 33.1 °F 86% 29.95 in 10.0 mi Calm Calm - N/A   Partly Cloudy
11:51 PM 35.1 °F - 30.9 °F 85% 29.95 in 10.0 mi Calm Calm - N/A   Partly Cloudy